Torna al catalogo

STARLINK-35674

AttivoComunicazioniVLEO
NORAD 67117·PAYLOAD·🇺🇸 United States

Lanciato Dec 15, 2025 da Cape Canaveral Space Force Station

Loading…

Prossimi Passaggi (prossime 24 ore)

TLE

AggiornatoSource: CelesTrak SupGP

Epoca: Sep 14, 2026, 20:56 UTC

1 67117C 25299R   26257.87270833  .00002723  00000+0  98630-4 0  2579
2 67117  43.0034 180.5627 0001338 261.3052 314.1825 15.27576290    10

Traccia STARLINK-35674 in tempo reale con AllMySat

Download on the App Store